EHI
11 6 1 1 1 0 0 0 1 1 0 0 0 0 0 0 0 0 0 0 0 0 0 0 0 0 0 0 0 0 0 0 0 0 0 0 0 0 0 0 0 0 0
22 12 4 2 2 1 0 1 2 3 2 0 0 0 0 0 0 0 0 0 0 0 0 0 0 0 0 0 0 0 0 0 0 0 0 0 0 0 0 0 0 0 0
41 24 7 4 4 3 2 3 4 5 4 1 0 0 0 0 0 0 0 0 0 0 0 0 0 0 0 0 0 0 0 0 0 0 0 0 0 0 0 0 0 0 0
57 34 10 6 12 13 12 10 8 5 3 1 0 0 0 0 0 0 0 0 0 0 0 0 0 0 0 0 0 0 0 0 0 0 0 0 0 0 0 0 0 0 0
63 40 15 13 28 37 33 25 15 7 3 1 1 0 0 0 0 0 0 0 0 0 0 0 0 0 0 0 0 0 0 0 0 0 0 0 0 0 0 0 0 0 0
56 44 33 37 54 64 58 43 29 16 6 2 1 1 0 0 0 0 0 0 0 0 0 0 0 0 0 0 0 0 0 0 0 0 0 0 0 0 0 0 0 0 0
55 58 64 69 77 82 73 57 43 29 15 6 3 2 0 0 0 0 0 0 0 0 0 0 0 0 0 0 0 0 0 0 0 0 0 0 0 0 0 0 0 0 0
55 61 71 76 80 81 71 55 44 33 19 9 3 1 0 0 0 0 0 0 0 0 0 0 0 0 0 0 0 0 0 0 0 0 0 0 0 0 0 0 0 0 0
32 35 42 48 52 54 48 38 29 21 14 9 4 1 0 0 0 0 0 0 0 0 0 0 0 0 0 0 0 0 0 0 0 0 0 0 0 0 0 0 0 0 0
6 8 11 15 17 20 20 16 12 8 7 7 6 3 2 1 0 0 0 0 0 0 0 0 0 0 0 0 0 0 0 0 0 0 0 0 0 0 0 0 0 0 0
0 1 1 1 2 2 3 3 2 2 2 3 4 4 3 1 0 0 0 0 0 0 0 0 0 0 0 0 0 0 0 0 0 0 0 0 0 0 0 0 0 0 0
0 0 0 0 0 0 0 0 0 0 0 1 1 2 2 1 0 0 0 0 0 0 0 0 0 0 0 0 0 0 0 0 0 0 0 0 0 0 0 0 0 0 0
0 0 0 0 0 0 0 0 0 0 0 0 0 0 0 0 0 0 0 0 0 0 0 0 0 0 0 0 0 0 0 0 0 0 0 0 0 0 0 0 0 0 0
0 0 0 0 0 0 0 0 0 0 0 0 0 0 0 0 0 0 0 0 0 0 0 0 0 0 0 0 0 0 0 0 0 0 0 0 0 0 0 0 0 0 0
0 0 0 0 0 0 0 0 0 0 0 0 0 0 0 0 0 0 0 0 0 0 0 0 0 0 0 0 0 0 0 0 0 0 0 0 0 0 0 0 0 0 0
0 0 0 0 0 0 0 0 0 0 0 0 0 0 0 0 0 0 0 0 0 0 0 0 0 0 0 0 0 0 0 0 0 0 0 0 0 0 0 0 0 0 0
0 0 0 0 0 0 0 0 0 0 0 0 0 0 0 0 0 0 0 0 0 0 0 0 0 0 0 0 0 0 0 0 0 0 0 0 0 0 0 0 0 0 0
0 0 0 0 0 0 0 0 0 0 0 0 0 0 0 0 0 0 0 0 0 0 0 0 0 0 0 0 0 0 0 0 0 0 0 0 0 0 0 0 0 0 0
0 0 0 0 0 0 0 0 0 0 0 0 0 0 0 0 0 0 0 0 0 0 0 0 0 0 0 0 0 0 0 0 0 0 0 0 0 0 0 0 0 0 0
0 0 0 0 0 0 0 0 0 0 0 0 0 0 0 0 0 0 0 0 0 0 0 0 0 0 0 0 0 0 0 0 0 0 0 0 0 0 0 0 0 0 0
0 0 0 0 0 0 0 0 0 0 0 0 0 0 0 0 0 0 0 0 0 0 0 0 0 0 0 0 0 0 0 0 0 0 0 0 0 0 0 0 0 0 0
0 0 0 0 0 0 0 0 0 0 0 0 0 0 0 0 0 0 0 0 0 0 0 0 0 0 0 0 0 0 0 0 0 0 0 0 0 0 0 0 0 0 0
0 0 0 0 0 0 0 0 0 0 0 0 0 0 0 0 0 0 0 0 0 0 0 0 0 0 0 0 0 0 0 0 0 0 0 0 0 0 0 0 0 0 0
0 0 0 0 0 0 0 0 0 0 0 0 0 0 0 0 0 0 0 0 0 0 0 0 0 0 0 0 0 0 0 0 0 0 0 0 0 0 0 0 0 0 0
0 0 0 0 0 0 0 0 0 0 0 0 0 0 0 0 0 0 0 0 0 0 0 0 0 0 0 0 0 0 0 0 0 0 0 0 0 0 0 0 0 0 0
0 0 0 0 0 0 0 0 0 0 0 0 0 0 0 0 0 0 0 0 0 0 0 0 0 0 0 0 0 0 0 0 0 0 0 0 0 0 0 0 0 0 0
Wind_Speed
6 4 5 2 2 3 2 2 2 2 4 4 3 3 3 3 3 3 3 3 4 4 4 4 3 2 0 1 1 1 1 1 3 3 3 4 6 7 5 4 6 6 5
6 5 5 5 4 3 4 4 4 4 4 4 5 5 4 4 4 4 4 4 4 5 5 5 5 4 3 1 1 1 2 1 2 3 3 3 5 7 7 6 6 7 6
6 5 5 5 6 5 4 5 4 5 5 5 5 6 6 6 5 5 5 5 5 5 6 6 6 6 4 1 0 1 1 3 2 2 3 3 3 6 7 6 5 4 8
7 5 5 5 6 5 4 4 4 5 5 6 6 7 7 7 6 6 6 5 5 5 5 6 6 6 5 4 2 2 2 2 3 2 3 2 3 3 6 5 4 3 4
7 5 5 5 5 5 4 4 3 4 4 5 5 6 7 7 7 7 7 7 6 6 6 6 7 8 10 8 5 4 3 3 3 3 4 3 3 3 5 5 5 4 4
8 7 5 4 2 4 3 4 4 4 4 3 4 5 6 6 9 11 7 6 7 7 7 8 9 11 13 15 14 11 8 6 5 4 4 5 7 6 4 4 5 4 4
3 3 3 2 1 2 3 4 4 4 4 3 3 4 5 5 10 12 10 4 4 5 7 7 7 8 12 9 13 15 13 14 13 7 6 7 7 7 7 7 6 7 5
8 7 6 5 3 2 3 3 4 4 5 5 5 5 5 7 11 11 9 5 4 5 5 5 6 6 8 9 7 7 8 8 9 9 7 6 6 6 8 10 8 6 4
8 8 7 7 6 5 4 4 4 4 4 4 5 5 5 6 11 11 9 3 4 6 5 4 3 2 4 8 5 5 5 4 3 4 4 3 2 3 4 5 6 5 4
7 7 6 6 5 5 5 4 4 4 3 2 3 4 5 5 10 12 10 3 3 4 3 1 2 3 4 4 3 3 4 3 3 3 3 3 3 4 5 5 6 5 4
5 4 4 4 4 4 4 4 4 3 2 2 2 2 2 3 8 10 9 2 1 2 2 1 2 5 5 3 1 1 2 2 2 4 3 3 3 3 3 3 3 4 4
3 2 2 3 4 4 4 4 4 3 3 2 2 1 0 3 4 5 6 3 1 2 2 1 3 5 4 2 1 2 2 1 1 1 1 2 2 2 2 3 2 1 1
2 2 2 3 3 4 5 4 3 3 2 2 1 1 1 2 3 4 4 2 1 1 1 3 5 5 4 2 3 3 2 1 1 1 1 2 2 2 2 1 1 0 1
3 2 4 5 5 5 5 5 5 5 4 3 2 1 0 1 2 2 2 2 2 2 2 3 4 3 1 1 3 2 2 1 1 1 1 1 1 1 2 2 2 1 1
3 4 5 4 4 4 5 5 5 6 6 4 4 3 3 3 3 4 2 1 1 1 2 2 2 2 2 2 2 2 2 2 1 1 1 1 1 1 1 2 2 2 2
4 4 3 2 2 2 3 4 9 8 10 12 12 8 5 6 4 5 5 5 4 3 2 1 2 2 2 2 2 2 1 1 1 1 1 1 2 2 2 2 2 3 3
3 3 2 2 1 0 1 2 3 4 7 11 12 11 9 7 7 6 6 5 5 3 1 0 1 1 0 0 0 0 0 1 1 1 1 1 2 2 2 2 3 3 4
3 2 2 1 2 2 2 2 2 2 2 3 6 8 8 8 7 6 4 2 2 2 2 2 2 2 2 2 2 1 1 1 0 1 1 2 2 2 2 3 3 4 4
3 3 2 2 1 1 1 2 3 3 3 2 2 2 3 3 3 3 4 2 3 3 3 3 3 3 2 2 2 2 2 1 1 1 1 2 2 2 2 3 3 4 4
4 3 2 3 2 1 2 2 3 2 3 2 2 2 1 1 1 1 2 3 3 3 3 3 3 3 3 3 3 3 2 2 2 2 2 2 2 2 2 3 2 2 3
3 4 1 2 2 2 2 2 3 3 3 3 3 3 4 2 2 2 2 3 3 3 3 2 2 3 3 3 2 3 3 2 2 2 2 2 2 2 2 2 2 2 2
2 4 2 0 2 3 2 2 3 3 3 4 3 2 3 3 3 3 3 3 3 3 3 3 3 3 3 3 3 3 3 3 3 3 3 3 3 2 2 2 3 3 3
0 2 2 1 2 2 0 1 2 3 3 3 3 2 2 2 3 3 4 4 4 4 4 4 4 4 4 4 4 4 4 4 4 5 4 4 3 3 3 3 4 3 3
2 2 2 2 1 1 1 2 2 3 3 3 3 2 2 3 3 4 4 4 4 5 5 5 5 7 8 6 4 4 4 5 6 5 6 5 4 4 3 3 3 3 3
2 3 2 1 1 1 2 2 3 3 3 3 3 3 3 4 4 4 4 4 5 5 6 6 5 6 8 9 8 7 9 10 8 5 5 4 4 4 3 3 2 2 2
3 3 2 2 1 2 2 2 3 3 3 3 3 3 4 4 4 4 4 5 5 5 5 5 6 8 9 8 9 10 11 10 9 8 4 3 3 3 3 2 3 2 2
Wind_Direction
186 170 135 162 138 148 173 125 130 138 139 163 162 162 148 144 150 158 173 175 179 170 172 167 162 139 180 299 335 339 306 163 200 227 210 173 153 155 153 152 155 166 168
175 164 166 168 162 191 182 169 184 168 163 179 161 160 155 155 156 159 169 171 173 166 158 147 139 124 100 38 0 319 294 277 220 222 213 187 169 165 161 183 180 184 165
165 174 174 177 183 203 199 177 182 170 177 182 168 169 167 164 163 160 154 154 154 155 154 150 147 138 127 132 260 285 294 296 277 226 216 203 187 171 162 190 195 177 167
160 182 198 205 186 193 202 176 183 190 189 192 183 172 168 168 170 170 168 168 165 166 168 169 171 170 167 181 209 237 256 279 283 257 225 209 215 183 164 177 195 192 170
158 184 207 225 191 181 190 174 197 210 210 201 182 175 169 171 180 178 179 182 182 187 193 194 196 198 200 202 209 215 224 239 260 253 235 206 207 196 191 180 185 185 202
162 186 203 224 204 177 190 191 206 208 223 214 188 177 173 183 176 176 183 191 194 199 204 207 209 211 220 222 227 229 224 229 237 239 233 218 211 207 201 189 177 174 210
146 161 161 180 233 212 225 226 214 208 214 219 207 189 184 173 172 179 193 208 223 217 213 212 216 214 212 216 226 233 239 242 239 237 242 233 218 203 199 203 198 195 204
43 36 32 25 3 329 290 268 241 226 214 210 209 203 194 178 179 179 184 214 253 256 240 224 215 217 203 201 209 216 222 229 230 225 230 234 226 209 203 205 202 203 216
36 26 22 18 7 353 331 309 287 267 244 215 210 209 203 181 182 180 174 203 243 259 258 246 230 216 194 191 196 218 229 235 218 201 202 188 187 209 192 174 180 178 192
39 33 25 20 3 354 342 329 316 298 278 249 222 207 201 188 185 183 183 204 238 262 274 272 112 106 101 155 194 213 221 220 179 168 184 187 202 207 188 176 177 184 185
47 39 27 18 4 9 350 342 337 329 323 311 286 243 207 182 176 182 185 214 271 323 339 3 96 119 129 149 174 208 189 184 182 180 186 196 202 195 196 208 189 181 189
59 30 29 46 20 14 4 357 355 356 347 328 309 283 204 127 149 178 186 203 356 338 335 14 111 129 139 159 156 143 138 147 148 153 178 196 202 205 204 215 213 163 193
74 12 18 64 55 32 18 8 1 3 351 325 305 272 214 138 135 155 176 193 214 324 32 91 132 141 144 162 163 152 172 197 154 165 209 221 213 194 168 176 179 93 9
107 57 52 53 48 45 32 18 19 16 9 7 1 349 122 128 123 146 177 193 195 202 166 121 127 127 278 282 160 197 228 212 159 198 215 199 154 150 163 164 163 154 182
67 75 77 73 67 64 62 39 26 45 36 27 14 19 33 62 38 43 60 81 175 208 150 142 163 171 216 224 201 202 196 157 171 233 201 190 190 190 189 167 161 158 182
49 51 60 87 84 101 121 101 57 59 55 53 46 41 55 49 43 53 64 62 60 66 105 194 224 221 222 222 212 209 200 206 209 209 216 214 217 219 207 186 183 192 208
52 47 45 44 42 88 145 144 130 81 66 56 46 43 44 38 48 60 68 67 57 59 75 287 273 284 345 24 76 110 232 219 193 197 219 232 230 234 224 212 203 206 217
78 84 33 26 3 8 23 48 95 120 103 76 55 46 48 53 55 58 43 21 45 38 39 43 45 46 48 38 33 27 7 349 277 255 256 251 241 238 243 239 223 217 221
53 52 34 14 355 12 39 66 80 91 97 98 104 74 52 49 42 14 348 4 48 49 41 41 38 37 34 28 24 17 5 350 331 305 288 280 267 256 257 254 248 241 232
101 78 6 336 338 27 54 81 90 93 95 92 77 57 5 297 0 24 20 24 39 47 43 40 35 33 33 28 20 14 8 4 358 350 336 326 312 294 283 284 277 260 237
145 136 193 300 359 46 49 68 83 86 90 85 76 53 12 12 38 47 45 38 38 43 47 41 36 29 24 12 5 3 3 353 347 338 330 322 315 303 292 284 281 276 264
149 146 166 74 61 54 33 60 86 89 99 102 104 84 25 27 43 47 43 38 36 40 35 35 35 32 23 10 7 5 358 347 343 334 323 316 311 300 291 278 269 261 253
196 122 121 107 101 103 29 74 94 95 99 102 98 82 59 50 48 49 45 38 37 38 34 37 40 31 22 20 20 19 10 358 345 334 323 312 303 294 287 281 277 271 261
167 125 117 120 128 136 118 102 109 108 105 101 99 91 77 71 65 59 52 46 50 48 44 42 39 32 26 21 18 18 9 347 332 320 316 308 302 293 287 282 280 280 281
139 123 121 126 140 138 126 119 112 104 100 97 92 84 76 72 69 65 59 56 62 58 50 42 34 27 19 19 16 5 350 342 335 325 309 305 307 309 306 297 292 288 280
129 125 122 114 107 109 106 110 114 111 99 92 88 84 79 76 72 66 61 56 60 53 44 36 37 38 21 10 3 358 351 346 343 338 321 308 316 321 326 318 309 298 287